CW0803 Weather Reports


time (UTC)temp
F
wind
direction
speed
knots
gust
knots
rain 1hr
in
rain 24hr
in
rain mn
in
humidity
%
barometer
mb
20260505230804 71 252 3.5 11.3 0.00 0.00 0.00 84 1018.3
20260505230305 71 263 4.3 11.3 0.00 0.00 0.00 84 1018.4
20260505224804 71 257 1.7 7.0 0.00 0.00 0.00 85 1018.7
20260505224304 71 258 2.6 10.4 0.00 0.00 0.00 84 1018.6
20260505223804 71 221 3.5 10.4 0.00 0.00 0.00 84 1018.7
20260505223304 71 228 2.6 7.0 0.00 0.00 0.00 84 1018.8
20260505221804 72 236 4.3 10.4 0.00 0.00 0.00 84 1018.6
20260505221303 72 266 5.2 10.4 0.00 0.00 0.00 84 1018.6
20260505220804 72 266 3.5 11.3 0.00 0.00 0.00 84 1018.6
20260505220304 73 270 5.2 11.3 0.00 0.00 0.00 83 1018.7
20260505214803 73 258 5.2 11.3 0.00 0.00 0.00 81 1018.5
20260505213804 73 255 5.2 10.4 0.00 0.00 0.00 81 1018.6
20260505213304 73 246 6.1 10.4 0.00 0.00 0.00 81 1018.6
20260505211804 73 254 5.2 10.4 0.00 0.00 0.00 80 1018.7
20260505211304 74 257 5.2 11.3 0.00 0.00 0.00 80 1018.7
20260505210804 74 258 4.3 11.3 0.00 0.00 0.00 80 1018.8
20260505210305 74 257 6.1 11.3 0.00 0.00 0.00 79 1018.8
20260505204803 74 256 4.3 11.3 0.00 0.00 0.00 78 1018.8
20260505204304 74 265 4.3 10.4 0.00 0.00 0.00 77 1018.8
20260505203803 74 249 5.2 10.4 0.00 0.00 0.00 77 1018.7
20260505203304 74 228 3.5 10.4 0.00 0.00 0.00 76 1018.5
20260505201804 75 263 4.3 13.9 0.00 0.00 0.00 76 1018.7
20260505201304 75 255 5.2 13.9 0.00 0.00 0.00 77 1018.7
20260505194804 75 257 5.2 8.7 0.00 0.00 0.00 76 1019.0
20260505194304 75 272 2.6 7.0 0.00 0.00 0.00 77 1019.0
20260505193804 76 270 4.3 13.0 0.00 0.00 0.00 76 1019.2
20260505193304 75 234 5.2 13.0 0.00 0.00 0.00 76 1019.3
20260505191803 76 249 6.1 10.4 0.00 0.00 0.00 76 1019.6
20260505191303 76 253 5.2 10.4 0.00 0.00 0.00 76 1019.6
20260505190803 76 244 5.2 11.3 0.00 0.00 0.00 76 1019.7
20260505190303 76 260 5.2 11.3 0.00 0.00 0.00 76 1019.6
20260505184303 76 261 4.3 10.4 0.00 0.00 0.00 76 1019.4
20260505183804 77 283 2.6 7.8 0.00 0.00 0.00 76 1019.4
20260505183304 77 280 4.3 7.8 0.00 0.00 0.00 76 1019.3
20260505181803 76 254 5.2 11.3 0.00 0.00 0.00 76 1019.6
20260505181304 76 271 3.5 11.3 0.00 0.00 0.00 76 1019.6
20260505180803 77 264 5.2 11.3 0.00 0.00 0.00 76 1019.7
20260505180303 77 238 5.2 13.0 0.00 0.00 0.00 75 1019.8
20260505174804 77 283 6.1 11.3 0.00 0.00 0.00 74 1019.9
20260505174304 78 226 2.6 8.7 0.00 0.00 0.00 75 1019.7
20260505173805 77 260 5.2 8.7 0.00 0.00 0.00 74 1019.7
20260505173304 78 258 4.3 8.7 0.00 0.00 0.00 73 1019.9
20260505171805 77 244 4.3 13.9 0.00 0.00 0.00 74 1019.9
20260505171305 77 227 4.3 11.3 0.00 0.00 0.00 74 1020.0
20260505170306 76 228 5.2 11.3 0.00 0.00 0.00 76 1020.1
20260505164805 77 234 4.3 10.4 0.00 0.00 0.00 76 1020.2
20260505164306 77 232 6.1 10.4 0.00 0.00 0.00 74 1020.2
20260505163305 78 241 6.1 13.0 0.00 0.00 0.00 73 1020.3
20260505161805 77 252 5.2 10.4 0.00 0.00 0.00 73 1020.3
20260505161305 77 222 3.5 7.8 0.00 0.00 0.00 75 1020.3
20260505160805 76 251 1.7 5.2 0.00 0.00 0.00 77 1020.4
20260505160306 75 200 2.6 6.1 0.00 0.00 0.00 77 1020.4
20260505153308 76 254 1.7 7.8 0.00 0.00 0.00 78 1020.4
20260505151805 76 256 2.6 7.0 0.00 0.00 0.00 76 1020.4
20260505151305 76 268 1.7 8.7 0.00 0.00 0.00 76 1020.3
20260505150806 76 262 2.6 8.7 0.00 0.00 0.00 76 1020.3
20260505150305 76 272 4.3 8.7 0.00 0.00 0.00 75 1020.4
20260505140305 75 255 1.7 4.3 0.00 0.00 0.00 82 1020.1
20260505124805 64 23 0.0 0.0 0.00 0.00 0.00 98 1019.7
20260505124305 63 22 0.0 0.0 0.00 0.00 0.00 98 1019.9
20260505123805 62 23 0.0 0.0 0.00 0.00 0.00 98 1019.9
20260505123305 61 23 0.0 0.0 0.00 0.00 0.00 98 1019.8
20260505121805 60 23 0.0 0.0 0.00 0.00 0.00 100 1019.7
20260505121305 59 23 0.0 0.0 0.00 0.00 0.00 100 1019.7
20260505120805 59 23 0.0 0.0 0.00 0.00 0.00 100 1019.6
20260505120305 58 23 0.0 0.0 0.00 0.00 0.00 100 1019.6
20260505114805 56 23 0.0 0.0 0.00 0.00 0.00 100 1019.7
20260505113805 56 23 0.0 0.0 0.00 0.00 0.00 100 1019.7
20260505113305 55 23 0.0 0.0 0.00 0.00 0.00 98 1019.5
20260505111805 54 260 0.0 0.0 0.00 0.00 0.00 98 1019.3
20260505111305 54 260 0.0 0.0 0.00 0.00 0.00 98 1019.2
20260505110805 54 260 0.0 0.0 0.00 0.00 0.00 98 1019.2
20260505110305 54 260 0.0 0.0 0.00 0.00 0.00 98 1019.1
20260505101804 53 260 0.0 0.0 0.00 0.00 0.00 98 1018.6
20260505101305 53 260 0.0 0.0 0.00 0.00 0.00 98 1018.6
20260505100805 53 260 0.0 0.0 0.00 0.00 0.00 98 1018.4
20260505100305 53 260 0.0 0.0 0.00 0.00 0.00 98 1018.3
20260505094805 54 260 0.0 0.0 0.00 0.00 0.00 98 1018.2
20260505094305 54 260 0.0 0.0 0.00 0.00 0.00 98 1018.3
20260505093804 54 260 0.0 0.0 0.00 0.00 0.00 98 1018.2
20260505093305 54 260 0.0 0.0 0.00 0.00 0.00 98 1018.2
20260505091305 54 260 0.0 0.0 0.00 0.00 0.00 98 1018.1
20260505090805 54 260 0.0 0.0 0.00 0.00 0.00 98 1018.0
20260505090305 54 260 0.0 0.0 0.00 0.00 0.00 98 1017.9
20260505084805 54 260 0.0 0.0 0.00 0.00 0.00 98 1017.8
20260505084304 55 260 0.0 0.0 0.00 0.00 0.00 98 1017.8
20260505083805 55 260 0.0 0.0 0.00 0.00 0.00 98 1017.8
20260505083306 55 260 0.0 0.0 0.00 0.00 0.00 97 1017.8
20260505081805 55 260 0.0 0.0 0.00 0.00 0.00 97 1017.8
20260505081305 55 260 0.0 0.0 0.00 0.00 0.00 97 1017.8
20260505080805 55 260 0.0 0.0 0.00 0.00 0.00 97 1017.9
20260505080305 55 260 0.0 0.0 0.00 0.00 0.00 97 1017.8
20260505074805 55 260 0.0 0.0 0.00 0.00 0.00 97 1017.9
20260505074305 56 260 0.0 0.0 0.00 0.00 0.00 97 1017.8
20260505073805 56 260 0.0 0.0 0.00 0.00 0.00 97 1017.8
20260505073305 56 260 0.0 0.0 0.00 0.00 0.00 97 1017.8
20260505071805 56 260 0.0 0.0 0.00 0.00 0.00 97 1017.8
20260505071305 56 260 0.0 0.0 0.00 0.00 0.00 97 1017.9
20260505070806 56 260 0.0 0.0 0.00 0.00 0.00 97 1017.8
20260505070305 56 260 0.0 0.0 0.00 0.00 0.00 97 1017.9
20260505064805 57 260 0.0 0.0 0.00 0.00 0.00 97 1018.0
20260505064305 57 260 0.0 0.0 0.00 0.00 0.00 96 1018.0
20260505063804 57 260 0.0 0.0 0.00 0.00 0.00 96 1018.0
20260505063306 57 260 0.0 0.0 0.00 0.00 0.00 96 1018.0
20260505061805 57 260 0.0 0.0 0.00 0.00 0.00 96 1018.2
20260505060805 58 260 0.0 0.0 0.00 0.00 0.00 96 1018.2
20260505060305 58 260 0.0 0.0 0.00 0.00 0.00 96 1018.3
20260505054305 59 260 0.0 0.0 0.00 0.00 0.00 96 1018.5
20260505053804 59 260 0.0 0.0 0.00 0.00 0.00 96 1018.7
20260505053305 59 260 0.0 0.0 0.00 0.00 0.00 96 1018.8
20260505051805 59 260 0.0 0.0 0.00 0.00 0.00 95 1018.8
20260505051305 59 260 0.0 0.0 0.00 0.00 0.00 95 1018.8
20260505050805 59 260 0.0 0.0 0.00 0.00 0.00 95 1018.9
20260505041305 60 260 0.0 0.0 0.00 0.00 0.00 93 1018.8
20260505040822 60 260 0.0 0.0 0.00 0.00 0.00 93 1018.8
20260505034804 61 260 0.0 0.0 0.00 0.00 0.00 92 1018.8
20260505034305 61 260 0.0 0.0 0.00 0.00 0.00 92 1018.8
20260505033305 61 260 0.0 0.0 0.00 0.00 0.00 91 1018.8
20260505031805 62 260 0.0 0.0 0.00 0.00 0.00 91 1018.9
20260505031305 62 260 0.0 0.0 0.00 0.00 0.00 90 1018.9
20260505030805 62 260 0.0 0.0 0.00 0.00 0.00 90 1019.0
20260505030305 62 260 0.0 0.0 0.00 0.00 0.00 90 1019.0
20260505024805 63 260 0.0 1.7 0.00 0.00 0.00 89 1018.9
20260505024305 63 260 0.0 1.7 0.00 0.00 0.00 89 1018.9
20260505023804 63 260 0.9 1.7 0.00 0.00 0.00 89 1019.0
20260505023304 63 260 0.0 2.6 0.00 0.00 0.00 89 1019.0
20260505021305 63 260 0.0 4.3 0.00 0.00 0.00 88 1019.1
20260505020805 63 260 0.0 4.3 0.00 0.00 0.00 88 1019.0
20260505020304 64 262 0.0 1.7 0.00 0.00 0.00 88 1018.9
20260505014804 64 262 0.9 2.6 0.00 0.00 0.00 87 1018.8
20260505014305 64 260 0.9 4.3 0.00 0.00 0.00 87 1018.8
20260505013804 65 249 0.0 4.3 0.00 0.00 0.00 87 1018.8
20260505013304 65 247 0.9 2.6 0.00 0.00 0.00 87 1018.6
20260505011804 65 261 1.7 4.3 0.00 0.00 0.00 87 1018.5
20260505011304 65 261 0.0 2.6 0.00 0.00 0.00 87 1018.3
20260505010305 65 261 0.0 4.3 0.00 0.00 0.00 86 1018.3
20260505003805 66 257 0.9 4.3 0.00 0.00 0.00 84 1018.1
20260505001804 66 257 0.9 4.3 0.00 0.00 0.00 84 1018.1
20260505001305 67 258 0.9 7.0 0.00 0.00 0.00 83 1018.1
20260505000806 67 12 0.9 7.0 0.00 0.00 0.00 82 1018.1
20260505000305 67 263 1.7 4.3 0.00 0.00 0.00 81 1017.9
20260504234805 67 267 1.7 6.1 0.00 0.00 0.00 80 1017.9
20260504234305 68 292 1.7 5.2 0.00 0.00 0.00 80 1017.9
20260504233805 68 271 1.7 5.2 0.00 0.00 0.00 80 1018.0
20260504231804 69 247 2.6 11.3 0.00 0.00 0.00 77 1017.9
20260504231304 69 280 3.5 7.8 0.00 0.00 0.00 77 1017.9